deb Ablestar 008

Debris
NORAD ID: 329 Int'l Des: 1961 OMI Owner: AFSSD Country: US
LEO

deb Ablestar 008について

説明を読み込み中...

リアルタイム位置

3D地球を読み込み中...

次回通過

高度履歴

Altitude vs Time

uPlot chart will show altitude changes over time

軌道要素

1 00329U 61015DF 25340.72946556 .00000148 00000-0 25634-3 0 9991
2 00329 66.7797 105.5378 0109853 125.3863 352.6663 13.66062404203728
Epoch: Dec 6, 2025 • Age: 22 hours

現在のステータス

高度 1103.8 km
速度 7.27 km/s
衛星直下点 -66.86°S, 64.29°E
タイプ debris

大規模コンステレーション

Loading constellations...